Date,TemperatureHighF,TemperatureAvgF,TemperatureLowF,DewpointHighF,DewpointAvgF,DewpointLowF,HumidityHigh,HumidityAvg,HumidityLow,PressureMaxIn,PressureMinIn,WindSpeedMaxMPH,WindSpeedAvgMPH,GustSpeedMaxMPH,PrecipitationSumIn
2012-1-1,25.0,22.1,22.0,25.0,17.8,-99.9,100,96,100,29.98,29.74,12,-38,28,0.00
2012-1-2,34.0,29.5,22.0,34.0,23.9,-99.9,100,90,74,29.62,29.26,32,-36,33,0.02
2012-1-3,18.0,6.2,-2.0,14.0,-0.7,-99.9,100,86,78,29.88,29.50,12,-39,32,0.01
2012-1-4,9.0,3.9,-3.0,8.0,-0.4,-99.9,100,92,81,29.89,29.71,16,-27,27,0.00
2012-1-5,22.0,13.5,3.0,20.0,7.5,-99.9,100,90,82,29.75,29.56,14,-42,32,0.00
2012-1-6,14.0,2.3,-9.0,9.0,-3.5,-99.9,100,90,66,29.93,29.76,7,-41,16,0.00
2012-1-7,18.0,13.8,9.0,18.0,9.2,-99.9,100,95,100,29.75,29.67,7,-43,10,0.00
2012-1-8,20.0,12.2,1.0,20.0,7.2,-99.9,100,92,83,30.17,29.74,12,-39,21,0.00
2012-1-9,17.0,7.7,-1.0,16.0,2.5,-99.9,100,92,85,30.15,29.86,7,-43,16,0.00
2012-1-10,31.0,18.8,6.0,29.0,13.3,-99.9,100,90,84,29.84,29.55,17,-37,41,0.00
2012-1-11,5.0,-0.5,-5.0,1.0,-10.3,-99.9,100,85,69,30.17,29.88,13,-78,27,0.00
2012-1-12,16.0,7.3,0.0,15.0,1.1,-99.9,100,89,69,30.19,29.72,12,-44,24,0.00
2012-1-13,34.0,24.3,14.0,34.0,20.9,-99.9,100,96,92,29.64,28.89,13,-29,29,0.00
2012-1-14,26.0,8.4,-5.0,26.0,4.1,-99.9,100,92,85,29.86,29.01,24,-23,39,0.00
2012-1-15,1.0,-4.4,-10.0,-1.0,-9.8,-99.9,100,92,84,30.21,29.88,19,-40,31,0.00
2012-1-16,13.0,-1.4,-20.0,11.0,-7.5,-99.9,100,89,74,30.36,29.92,10,-41,19,0.00
2012-1-17,28.0,20.8,16.0,24.0,13.7,-99.9,100,87,77,29.86,29.55,9,-47,15,0.00
2012-1-18,32.0,18.7,3.0,29.0,10.9,-99.9,100,83,75,29.91,29.18,20,-37,64,0.00
2012-1-19,10.0,-4.1,-20.0,0.0,-10.7,-99.9,100,84,62,30.27,29.96,10,-34,22,0.00
2012-1-20,15.0,5.8,-16.0,15.0,2.3,-99.9,100,97,100,30.06,29.90,10,-31,19,0.00
2012-1-21,4.0,-6.0,-25.0,3.0,-9.6,-99.9,100,95,93,30.21,30.08,12,-29,21,0.00
2012-1-22,8.0,-10.4,-32.0,5.0,-16.1,-99.9,100,92,75,30.49,30.25,6,-46,12,0.00
2012-1-23,33.0,14.8,-2.0,33.0,9.5,-99.9,100,93,86,30.36,30.01,10,-43,16,0.00
2012-1-24,43.0,35.6,34.0,42.0,28.5,-99.9,100,87,78,29.94,29.74,9,-44,18,0.07
2012-1-25,34.0,23.2,12.0,30.0,14.4,-99.9,90,79,74,30.05,29.80,14,-36,31,0.01
2012-1-26,18.0,9.0,1.0,9.0,2.6,-99.9,100,87,64,30.12,30.03,11,-34,28,0.00
2012-1-27,20.0,11.6,1.0,20.0,6.8,-99.9,100,95,100,30.06,29.35,12,-43,47,0.00
2012-1-28,27.0,20.3,12.0,22.0,13.9,-99.9,100,89,78,29.87,29.40,14,-41,24,0.00
2012-1-29,31.0,23.9,17.0,26.0,12.7,-99.9,100,77,60,29.79,29.56,19,-57,45,0.00
2012-1-30,17.0,10.7,-6.0,17.0,2.9,-99.9,100,84,69,30.08,29.77,16,-45,30,0.00
2012-1-31,20.0,3.7,-22.0,14.0,-7.4,-99.9,100,82,52,30.19,30.07,6,-79,10,0.00
2012-2-1,18.0,11.8,4.0,17.0,6.0,-99.9,100,94,94,30.05,29.80,12,-51,20,0.00
2012-2-2,22.0,11.2,-7.0,15.0,3.8,-99.9,100,88,75,30.15,29.94,9,-54,17,0.00
2012-2-3,19.0,5.6,-22.0,12.0,-1.4,-99.9,100,88,72,30.23,30.10,10,-49,17,0.00
2012-2-4,18.0,9.9,5.0,12.0,4.5,-99.9,100,89,74,30.08,30.02,12,-33,24,0.00
2012-2-5,16.0,4.5,-23.0,11.0,-5.7,-99.9,100,81,60,30.00,29.73,9,-68,21,0.00
2012-2-6,34.0,25.8,14.0,29.0,19.1,-99.9,100,86,80,29.66,29.56,19,-32,30,0.00
2012-2-7,26.0,14.0,1.0,17.0,4.2,-99.9,96,74,64,30.07,29.70,16,-32,32,0.00
2012-2-8,26.0,4.6,-21.0,7.0,-7.1,-99.9,100,71,40,30.07,29.88,13,-34,28,0.00
2012-2-9,29.0,11.7,-8.0,19.0,3.1,-99.9,100,82,64,29.92,29.85,11,-46,22,0.00
2012-2-10,40.0,16.6,-2.0,21.0,5.7,-99.9,100,77,39,29.95,29.83,10,-46,19,0.00
2012-2-11,20.0,10.7,1.0,18.0,4.6,-99.9,100,87,74,29.85,29.58,15,-30,25,0.00
2012-2-12,3.0,-1.0,-7.0,-1.0,-11.1,-99.9,100,76,63,29.52,29.41,19,-47,38,0.00
2012-2-13,4.0,-8.4,-23.0,-10.0,-17.9,-99.9,100,76,40,29.76,29.45,14,-33,31,0.00
2012-2-14,22.0,0.4,-28.0,18.0,-7.6,-99.9,100,78,52,30.02,29.79,7,-22,15,0.00
2012-2-15,45.0,24.5,12.0,27.0,15.3,-99.9,100,80,50,30.19,30.04,11,-41,12,0.00
2012-2-16,37.0,29.0,23.0,32.0,22.6,-99.9,100,87,74,30.22,30.04,7,-38,12,0.00
2012-2-17,33.0,30.0,29.0,33.0,24.8,-99.9,100,92,85,30.01,29.71,10,-37,17,0.01
2012-2-18,33.0,25.5,17.0,30.0,19.7,-99.9,100,90,81,29.75,29.63,14,-37,19,0.01
2012-2-19,22.0,15.2,10.0,15.0,5.0,-99.9,100,77,62,29.90,29.77,19,-45,32,0.01
2012-2-20,17.0,8.9,0.0,9.0,1.5,-99.9,100,82,62,30.13,29.91,17,-30,27,0.00
2012-2-21,32.0,8.9,-14.0,16.0,0.3,-99.9,100,80,52,30.18,29.81,10,-34,18,0.00
2012-2-22,35.0,24.0,17.0,33.0,13.7,-99.9,100,87,86,29.76,29.44,13,-91,14,0.00
2012-2-23,36.0,30.8,30.0,36.0,25.4,-99.9,100,94,92,29.51,29.32,10,-48,23,0.01
2012-2-24,39.0,31.0,28.0,30.0,22.5,-99.9,100,80,57,29.74,29.49,10,-35,26,0.01
2012-2-25,31.0,26.2,26.0,30.0,16.5,-99.9,100,88,90,29.39,28.91,19,-79,33,0.01
2012-2-26,29.0,16.3,7.0,26.0,7.1,-99.9,89,76,54,30.24,29.33,28,-25,52,0.00
2012-2-27,16.0,5.5,-6.0,10.0,-3.0,-99.9,100,82,53,30.37,30.05,8,-49,24,0.00
2012-2-28,21.0,13.0,3.0,15.0,6.6,-99.9,100,87,72,30.26,30.01,10,-38,19,0.00
2012-2-29,20.0,4.8,-10.0,11.0,-4.1,-99.9,100,80,49,30.26,30.18,13,-38,30,0.00
2012-3-1,18.0,3.7,-14.0,9.0,-4.4,-99.9,100,83,63,30.18,30.08,14,-47,25,0.00
2012-3-2,25.0,12.5,-5.0,14.0,2.2,-99.9,100,77,59,30.15,30.00,10,-47,15,0.00
2012-3-3,31.0,24.7,19.0,30.0,18.4,-99.9,100,92,85,29.95,29.24,10,-50,26,0.00
2012-3-4,35.0,28.4,22.0,30.0,18.4,-99.9,100,79,62,29.55,29.25,15,-50,24,0.01
2012-3-5,24.0,19.4,11.0,22.0,13.7,-99.9,100,89,76,30.16,29.53,17,-31,23,0.01
2012-3-6,24.0,10.2,-5.0,14.0,1.8,-99.9,100,82,57,30.43,30.21,13,-41,19,0.00
2012-3-7,39.0,21.7,-8.0,31.0,11.7,-99.9,100,78,61,30.41,29.95,19,-43,21,0.00
2012-3-8,57.0,45.1,36.0,42.0,28.4,-99.9,84,61,44,29.91,29.37,14,-49,30,0.01
2012-3-9,40.0,26.3,16.0,39.0,14.4,-99.9,100,69,44,30.11,29.47,18,-27,43,0.01
2012-3-10,24.0,13.1,4.0,10.0,3.0,-99.9,100,75,45,30.41,30.14,13,-33,24,0.00
2012-3-11,35.0,18.6,-2.0,22.0,13.1,-2.0,100,82,55,30.37,30.11,9,3,13,0.00
2012-3-12,47.0,28.7,12.0,27.0,15.8,-99.9,100,70,29,30.19,30.07,12,-26,24,0.00
2012-3-13,36.0,27.2,22.0,27.0,18.7,-99.9,100,79,48,30.16,30.06,17,-23,25,0.00
2012-3-14,28.0,23.5,22.0,28.0,19.4,-99.9,100,95,92,30.37,30.15,12,-33,20,0.00
2012-3-15,35.0,24.9,19.0,28.0,18.8,-99.9,100,88,69,30.44,30.32,10,-35,19,0.00
2012-3-16,34.0,24.5,11.0,33.0,20.0,-99.9,100,94,84,30.29,30.06,10,-36,14,0.01
2012-3-17,53.0,35.4,20.0,35.0,23.6,-99.9,100,75,42,30.31,30.13,8,-46,16,0.01
2012-3-18,64.0,45.0,31.0,51.0,33.0,-99.9,99,74,61,30.12,29.93,9,-50,22,0.00
2012-3-19,58.0,42.1,34.0,44.0,27.2,-99.9,100,67,31,30.29,30.05,7,-38,17,0.00
2012-3-20,73.0,47.3,37.0,49.0,28.5,-99.9,92,61,39,30.26,30.06,8,-57,25,0.00
2012-3-21,76.0,53.3,32.0,52.0,43.0,32.0,100,73,41,30.23,30.07,10,3,20,0.00
2012-3-22,69.0,47.9,37.0,52.0,33.0,-99.9,100,69,42,30.08,29.94,15,-47,29,0.00
2012-3-23,46.0,36.8,28.0,27.0,12.2,-99.9,61,42,30,30.12,29.98,22,-41,57,0.00
2012-3-24,40.0,29.2,22.0,22.0,6.5,-99.9,80,45,23,30.17,30.04,17,-29,43,0.00
2012-3-25,34.0,28.5,21.0,34.0,25.4,19.0,100,89,60,30.04,29.63,9,4,19,0.00
2012-3-26,35.0,23.8,20.0,35.0,12.6,-99.9,100,70,55,29.82,29.54,26,-25,62,0.01
2012-3-27,29.0,19.2,12.0,10.0,-2.0,-99.9,74,49,25,30.07,29.86,26,-43,50,0.00
2012-3-28,34.0,23.3,15.0,26.0,11.3,-99.9,100,70,27,30.04,29.77,10,-23,19,0.00
2012-3-29,37.0,30.8,26.0,27.0,19.3,-99.9,100,72,54,29.79,29.71,10,-37,30,0.00
2012-3-30,35.0,29.2,27.0,29.0,16.2,-99.9,100,67,42,29.93,29.71,20,-30,30,0.00
2012-3-31,42.0,30.9,23.0,21.0,13.9,-99.9,80,55,30,29.99,29.87,14,-21,35,0.00
2012-4-1,45.0,30.8,18.0,27.0,10.1,-99.9,100,57,23,29.87,29.67,10,-50,17,0.00
2012-4-2,42.0,31.5,23.0,24.0,8.6,-99.9,92,50,23,29.72,29.65,19,-49,38,0.00
2012-4-3,44.0,32.6,27.0,23.0,15.3,-99.9,73,55,40,29.78,29.65,16,-29,43,0.00
2012-4-4,38.0,30.8,28.0,34.0,23.9,-99.9,100,86,73,29.60,29.41,13,-41,27,0.01
2012-4-5,40.0,29.7,33.0,31.0,4.2,-99.9,93,56,45,29.68,29.45,16,-161,48,0.01
2012-4-6,41.0,32.4,28.0,23.0,14.8,-99.9,75,54,39,29.91,29.68,16,-30,29,0.00
2012-4-7,35.0,31.1,28.0,24.0,16.2,-99.9,74,61,54,30.01,29.92,13,-40,27,0.00
2012-4-8,35.0,31.0,30.0,35.0,25.9,-99.9,100,92,77,29.92,29.34,16,-33,29,0.00
2012-4-9,39.0,31.3,30.0,37.0,21.6,-99.9,100,87,85,29.44,29.33,8,-83,19,0.01
2012-4-10,46.0,31.1,26.0,39.0,20.3,-99.9,100,85,66,29.70,29.45,8,-89,13,0.02
2012-4-11,51.0,39.3,32.0,44.0,29.9,-99.9,100,78,56,29.94,29.72,9,-31,19,0.02
2012-4-12,47.0,38.6,30.0,35.0,23.0,-99.9,89,64,49,30.05,29.93,15,-50,38,0.00
2012-4-13,54.0,40.7,24.0,30.0,20.4,13.0,100,54,20,30.08,29.91,17,7,37,0.00
2012-4-14,56.0,42.2,26.0,28.0,12.6,-99.9,100,43,17,29.96,29.87,20,-28,43,0.00
2012-4-15,57.0,40.4,31.0,35.0,28.9,25.0,85,66,44,29.95,29.87,6,3,24,0.00
2012-4-17,71.0,62.2,44.0,54.0,41.0,33.0,90,49,29,30.13,29.87,23,10,47,0.00
2012-4-18,50.0,37.5,31.0,33.0,18.3,-99.9,80,54,31,30.28,30.13,16,-45,35,0.00
2012-4-19,61.0,42.0,25.0,39.0,24.5,-99.9,100,62,35,30.17,29.89,11,-51,30,0.00
2012-4-20,50.0,42.9,40.0,42.0,31.0,-99.9,99,71,53,30.03,29.91,10,-32,17,0.01
2012-4-21,55.0,41.4,36.0,49.0,34.0,-99.9,100,90,79,29.96,29.78,12,-31,27,0.01
2012-4-22,39.0,33.7,32.0,35.0,28.2,-99.9,100,91,83,30.13,29.91,16,-34,27,0.05
2012-4-23,43.0,34.7,33.0,43.0,28.8,-99.9,100,93,94,30.10,29.57,15,-46,27,0.03
2012-4-24,62.0,51.3,41.0,54.0,39.6,-99.9,100,74,52,29.72,29.48,25,-32,52,0.03
2012-4-25,58.0,46.4,39.0,42.0,31.7,-99.9,97,67,37,29.82,29.71,17,-33,28,0.01
2012-4-26,53.0,43.3,35.0,40.0,29.6,-99.9,100,69,44,29.82,29.71,12,-38,22,0.01
2012-4-27,44.0,36.2,32.0,41.0,31.6,-99.9,100,94,86,29.71,29.39,16,-31,36,0.00
2012-4-28,38.0,30.1,27.0,25.0,11.1,-99.9,83,55,34,29.91,29.64,29,-29,42,0.02
2012-4-29,37.0,29.9,26.0,19.0,7.2,-99.9,63,45,32,30.07,29.89,20,-43,45,0.01
2012-4-30,51.0,38.7,30.0,31.0,18.2,-99.9,84,52,34,30.21,30.07,16,-45,39,0.01
2012-5-1,54.0,41.2,27.0,40.0,30.8,-99.9,100,74,43,30.25,30.16,27,-18,43,0.00
2012-5-2,55.0,42.3,38.0,39.0,30.5,-99.9,98,75,53,30.27,30.21,8,-51,17,0.00
2012-5-3,63.0,48.7,34.0,41.0,31.9,-99.9,100,63,36,30.24,30.05,9,-36,18,0.00
2012-5-4,65.0,50.8,36.0,45.0,33.3,-99.9,100,61,35,30.07,29.93,16,-34,36,0.00
2012-5-5,50.0,42.2,37.0,47.0,29.6,-99.9,100,77,61,30.15,29.93,16,-51,38,0.00
2012-5-6,58.0,43.1,30.0,33.0,23.3,-99.9,100,57,26,30.17,30.08,11,-36,19,0.00
2012-5-7,67.0,48.5,27.0,34.0,24.7,17.0,98,50,16,30.17,30.03,11,5,18,0.00
2012-5-8,63.0,44.4,32.0,46.0,27.8,-99.9,100,68,25,30.05,29.93,19,-49,43,0.01
2012-5-9,54.0,46.2,42.0,53.0,41.1,-99.9,100,93,88,29.91,29.65,9,-35,16,0.01
2012-5-10,53.0,47.0,40.0,53.0,42.8,-99.9,100,95,94,29.63,29.25,17,-34,25,0.05
2012-5-11,50.0,42.8,41.0,45.0,33.3,-99.9,100,81,57,29.89,29.48,14,-44,38,0.01
2012-5-12,54.0,41.9,39.0,38.0,26.0,-99.9,93,66,51,30.13,29.90,14,-46,25,0.00
2012-5-13,52.0,45.0,37.0,48.0,38.2,-99.9,98,86,72,30.21,30.12,8,-34,16,0.00
2012-5-14,65.0,51.9,47.0,54.0,41.6,-99.9,97,78,64,30.23,30.10,12,-46,20,0.00
2012-5-15,62.0,53.3,46.0,59.0,48.0,-99.9,100,91,84,30.16,30.06,10,-33,22,0.00
2012-5-16,62.0,54.6,55.0,60.0,48.6,-99.9,100,93,92,30.04,29.79,17,-49,30,0.01
2012-5-17,57.0,49.6,42.0,57.0,34.1,-99.9,100,66,40,30.05,29.76,19,-45,41,0.01
2012-5-18,68.0,54.7,35.0,40.0,36.4,34.0,100,56,29,30.15,30.04,19,7,49,0.01
2012-5-19,69.0,57.4,50.0,48.0,36.5,-99.9,92,55,43,30.18,30.09,15,-36,27,0.00
2012-5-20,79.0,61.6,50.0,56.0,43.0,-99.9,93,61,35,30.29,30.15,10,-47,19,0.00
2012-5-21,86.0,69.1,58.0,60.0,44.7,-99.9,85,51,29,30.24,30.08,16,-49,42,0.00
2012-5-22,71.0,60.9,57.0,63.0,49.4,-99.9,100,75,55,30.09,29.92,12,-42,21,0.01
2012-5-23,71.0,58.7,53.0,60.0,45.6,-99.9,100,70,39,30.11,29.90,14,-23,33,0.01
2012-5-24,76.0,61.4,48.0,58.0,44.0,-99.9,100,63,37,30.27,30.13,21,-37,28,0.01
2012-5-25,71.0,61.2,58.0,61.0,51.1,-99.9,93,78,67,30.26,29.96,15,-38,49,0.00
2012-5-26,68.0,60.2,50.0,63.0,37.6,-99.9,100,57,24,30.14,29.91,18,-32,32,0.00
2012-5-27,63.0,51.9,38.0,41.0,28.7,-99.9,93,49,31,30.26,30.07,10,-39,25,0.00
2012-5-28,61.0,51.1,46.0,44.0,28.4,-99.9,83,49,31,30.11,30.03,12,-38,22,0.00
2012-5-29,50.0,42.7,42.0,45.0,36.2,-99.9,100,88,70,30.05,29.90,16,-36,26,0.01
2012-5-30,59.0,48.4,44.0,57.0,42.9,-99.9,100,92,88,29.82,29.70,10,-40,24,0.01
2012-5-31,58.0,50.2,46.0,56.0,43.0,-99.9,100,88,76,29.98,29.76,15,-48,27,0.00
2012-6-1,69.0,53.0,39.0,49.0,36.7,-99.9,100,65,30,30.11,29.97,21,-30,32,0.00
2012-6-2,69.0,55.2,41.0,55.0,40.9,-99.9,100,70,50,30.13,30.00,14,-31,22,0.00
2012-6-3,61.0,52.4,48.0,47.0,37.0,-99.9,85,64,53,30.03,29.91,18,-43,57,0.00
2012-6-4,56.0,48.5,45.0,49.0,37.7,-99.9,100,76,65,29.96,29.89,21,-41,39,0.00
2012-6-5,58.0,50.0,46.0,47.0,39.5,-99.9,96,75,61,30.01,29.91,19,-32,40,0.00
2012-6-6,59.0,49.7,45.0,52.0,38.7,-99.9,100,78,56,30.03,29.96,13,-49,27,0.00
2012-6-7,69.0,54.0,44.0,49.0,39.1,-99.9,100,68,37,30.03,29.85,11,-37,27,0.01
2012-6-8,68.0,53.2,40.0,57.0,45.8,-99.9,100,84,57,29.87,29.71,10,-24,21,0.00
2012-6-9,59.0,53.3,52.0,55.0,44.9,-99.9,100,89,80,29.95,29.69,11,-36,34,0.01
2012-6-10,71.0,57.3,48.0,57.0,45.5,-99.9,100,74,48,30.25,29.97,9,-37,19,0.00
2012-6-11,77.0,61.8,49.0,58.0,48.2,-99.9,100,70,45,30.31,30.12,11,-37,33,0.00
2012-6-12,79.0,65.1,57.0,62.0,50.8,-99.9,87,68,53,30.13,29.91,11,-38,28,0.00
2012-6-13,63.0,57.0,55.0,63.0,51.4,-99.9,100,91,80,30.15,29.93,14,-35,21,0.01
2012-6-14,68.0,55.8,46.0,51.0,38.8,-99.9,100,64,34,30.38,30.18,19,-34,27,0.01
2012-6-15,75.0,58.2,42.0,53.0,38.2,-99.9,100,59,30,30.43,30.32,16,-38,35,0.00
2012-6-16,68.0,52.9,48.0,54.0,40.2,-99.9,99,78,58,30.48,30.29,8,-50,15,0.00
2012-6-17,75.0,59.7,46.0,56.0,44.6,-99.9,100,68,41,30.29,30.09,13,-36,37,0.00
2012-6-18,76.0,61.0,51.0,54.0,42.7,-99.9,97,61,28,30.17,30.07,10,-38,34,0.00
2012-6-19,75.0,60.7,50.0,60.0,48.8,-99.9,100,74,55,30.12,29.92,14,-37,27,0.00
2012-6-20,82.0,74.8,64.0,63.0,53.7,50.0,96,50,36,29.90,29.81,17,9,50,0.00
2012-6-21,81.0,67.0,55.0,61.0,47.3,-99.9,98,58,31,29.87,29.73,8,-31,28,0.00
2012-6-22,78.0,66.0,61.0,72.0,60.8,-99.9,100,91,78,29.79,29.67,9,-30,32,0.01
2012-6-23,71.0,63.6,61.0,65.0,56.5,-99.9,100,85,73,29.92,29.79,15,-27,27,0.01
2012-6-24,64.0,59.2,58.0,63.0,54.5,-99.9,100,93,84,29.90,29.84,11,-29,27,0.00
2012-6-25,70.0,60.0,55.0,65.0,53.4,-99.9,100,89,78,29.85,29.78,14,-44,33,0.00
2012-6-26,64.0,58.7,59.0,64.0,54.0,-99.9,100,95,99,29.79,29.49,26,-36,45,0.00
2012-6-27,61.0,56.8,57.0,61.0,52.7,-99.9,100,96,99,29.59,29.47,15,-34,30,0.00
2012-6-28,70.0,60.3,57.0,61.0,52.9,-99.9,100,85,65,29.67,29.58,17,-31,36,0.00
2012-6-29,81.0,64.4,54.0,69.0,55.9,-99.9,100,83,50,29.65,29.42,16,-28,39,0.00
2012-6-30,81.0,66.8,59.0,68.0,55.9,-99.9,100,78,48,29.63,29.53,15,-40,34,0.00
2012-7-1,73.0,63.5,57.0,65.0,54.6,-99.9,100,80,60,29.82,29.66,12,-28,18,0.00
2012-7-2,72.0,61.7,52.0,61.0,51.8,-99.9,100,78,57,29.86,29.79,10,-28,27,0.00
2012-7-3,76.0,63.0,54.0,61.0,50.9,-99.9,100,74,43,29.89,29.83,10,-28,24,0.00
2012-7-4,67.0,59.9,53.0,64.0,55.3,-99.9,100,92,88,29.87,29.77,11,-29,30,0.00
2012-7-5,75.0,65.7,62.0,68.0,60.4,-99.9,99,88,66,29.90,29.76,8,-18,26,0.00
2012-7-6,79.0,66.6,59.0,68.0,56.5,-99.9,100,79,57,29.95,29.78,10,-40,16,0.00
2012-7-7,78.0,68.6,64.0,67.0,55.7,-99.9,100,71,51,29.76,29.65,17,-26,28,0.00
2012-7-8,67.0,61.2,58.0,57.0,48.5,-99.9,92,68,54,29.78,29.73,15,-14,45,0.00
2012-7-9,71.0,61.4,55.0,53.0,42.8,-99.9,86,57,35,29.90,29.77,18,-26,58,0.00
2012-7-10,74.0,60.8,46.0,55.0,42.9,-99.9,100,61,34,30.05,29.90,26,-28,50,0.00
2012-7-11,77.0,61.2,44.0,58.0,43.0,-99.9,100,62,32,30.17,30.07,12,-29,43,0.00
2012-7-12,83.0,69.1,56.0,63.0,49.2,-99.9,91,57,35,30.12,29.98,13,-27,47,0.00
2012-7-13,83.0,67.1,59.0,72.0,59.5,-99.9,99,84,56,30.13,30.05,10,-29,41,0.01
2012-7-14,82.0,70.1,66.0,70.0,61.8,-99.9,100,82,59,30.10,30.02,11,-27,29,0.01
2012-7-15,86.0,69.8,63.0,73.0,61.3,-99.9,100,82,60,30.11,29.90,14,-29,34,0.00
2012-7-16,77.0,67.8,64.0,69.0,59.4,-99.9,100,81,61,29.90,29.78,10,-28,21,0.00
2012-7-17,71.0,62.0,60.0,66.0,57.4,-99.9,100,92,84,29.81,29.62,8,-30,17,0.01
2012-7-18,75.0,64.1,59.0,63.0,54.1,-99.9,99,77,48,29.92,29.63,14,-26,32,0.01
2012-7-19,66.0,57.0,49.0,55.0,45.6,-99.9,93,73,51,30.00,29.92,19,-28,47,0.00
2012-7-20,72.0,60.3,50.0,59.0,47.1,-99.9,100,70,42,30.13,30.03,14,-28,18,0.00
2012-7-21,78.0,61.5,47.0,61.0,44.9,-99.9,100,67,32,30.16,30.03,10,-40,23,0.00
2012-7-22,81.0,69.6,58.0,65.0,58.1,-99.9,91,71,51,30.07,29.95,11,-6,25,0.00
2012-7-23,82.0,68.5,59.0,72.0,61.5,-99.9,100,85,65,30.03,29.71,11,-25,18,0.01
2012-7-24,74.0,65.1,58.0,66.0,57.5,-99.9,98,83,75,29.69,29.52,24,-26,50,0.02
2012-7-25,73.0,60.9,54.0,58.0,48.0,-99.9,97,71,39,29.77,29.67,17,-26,36,0.01
2012-7-26,80.0,64.5,54.0,64.0,52.4,-99.9,100,73,43,29.73,29.65,8,-30,23,0.00
2012-7-27,78.0,66.4,59.0,62.0,54.5,-99.9,95,72,42,29.98,29.70,11,-17,32,0.00
2012-7-28,79.0,63.3,49.0,59.0,47.7,-99.9,100,67,37,30.11,30.01,8,-30,20,0.00
2012-7-29,79.0,63.8,52.0,62.0,48.1,-99.9,97,67,33,30.14,30.02,12,-30,18,0.00
2012-7-30,84.0,65.7,53.0,64.0,49.5,-99.9,100,68,31,30.11,29.99,10,-42,17,0.00
2012-7-31,87.0,73.6,61.0,69.0,58.3,-99.9,95,65,36,30.08,29.91,16,-17,31,0.00
2012-8-1,76.0,66.0,59.0,66.0,56.4,-99.9,91,77,51,30.00,29.85,10,-22,25,0.00
2012-8-2,79.0,68.0,62.0,71.0,59.6,-99.9,94,82,72,29.89,29.80,13,-32,20,0.00
2012-8-3,82.0,69.1,64.0,70.0,60.3,-99.9,95,80,67,30.11,29.84,10,-28,34,0.02
2012-8-4,81.0,66.6,54.0,64.0,51.0,-99.9,98,66,30,30.27,30.14,8,-19,15,0.01
2012-8-5,87.0,72.2,60.0,70.0,59.6,-99.9,92,71,49,30.24,29.80,20,-25,61,0.00
2012-8-6,76.0,68.6,59.0,69.0,56.2,-99.9,90,71,53,29.97,29.74,15,-29,25,0.00
2012-8-7,81.0,66.6,52.0,64.0,52.8,-99.9,100,69,40,30.03,29.89,10,-19,25,0.00
2012-8-8,79.0,66.4,60.0,64.0,56.5,-99.9,92,76,51,30.01,29.95,14,-17,18,0.00
2012-8-9,79.0,66.3,56.0,65.0,56.4,-99.9,100,77,51,30.05,29.97,6,-20,13,0.00
2012-8-10,63.0,59.8,59.0,61.0,54.4,-99.9,97,88,85,30.10,30.03,7,-20,15,0.01
2012-8-11,75.0,65.8,63.0,65.0,56.8,-99.9,100,80,71,30.07,30.02,10,-17,20,0.01
2012-8-12,72.0,66.6,64.0,66.0,58.7,-99.9,90,80,78,30.05,29.91,8,-20,15,0.00
2012-8-13,80.0,69.1,64.0,67.0,60.0,-99.9,93,78,62,29.94,29.84,9,-24,20,0.00
2012-8-14,82.0,67.8,59.0,68.0,57.5,-99.9,98,76,57,29.95,29.85,6,-26,24,0.00
2012-8-15,75.0,63.9,62.0,65.0,54.4,-99.9,92,77,72,29.97,29.93,6,-28,16,0.00
2012-8-16,73.0,65.5,64.0,65.0,55.3,-99.9,79,74,72,29.95,29.86,10,-20,16,0.00
2012-8-17,78.0,67.4,61.0,67.0,56.6,-99.9,84,72,64,29.84,29.73,10,-18,20,0.00
2012-8-18,76.0,66.4,57.0,63.0,53.0,-99.9,83,67,43,29.96,29.80,11,-20,23,0.00
2012-8-19,74.0,61.1,51.0,61.0,49.4,-99.9,95,71,46,30.03,29.92,9,-18,18,0.00
2012-8-20,78.0,62.8,51.0,60.0,48.7,-99.9,95,66,37,29.98,29.86,5,-20,16,0.00
2012-8-21,73.0,60.3,53.0,59.0,47.0,-99.9,81,66,48,30.10,29.92,7,-20,24,0.00
2012-8-22,74.0,61.1,49.0,62.0,49.1,-99.9,77,68,56,30.17,30.07,10,-18,19,0.00
2012-8-23,76.0,64.4,56.0,64.0,52.6,-99.9,76,69,61,30.10,30.00,12,-18,22,0.00
2012-8-24,74.0,61.2,51.0,60.0,48.4,-99.9,84,67,45,30.30,30.12,13,-18,19,0.00
2012-8-25,79.0,62.8,47.0,66.0,48.3,-99.9,85,68,47,30.40,30.26,9,-19,17,0.00
2012-8-26,87.0,73.1,61.0,69.0,57.6,-99.9,76,61,40,30.30,30.14,10,-7,30,0.00
2012-8-27,84.0,70.5,60.0,70.0,56.8,-99.9,75,66,42,30.18,29.87,14,-22,38,0.00
2012-8-28,69.0,62.7,55.0,58.0,52.1,-99.9,80,71,64,29.85,29.71,21,-6,38,0.01
2012-8-29,67.0,57.2,50.0,58.0,47.3,-99.9,81,74,66,29.83,29.75,23,-17,44,0.00
2012-8-30,72.0,64.4,57.0,64.0,54.4,-99.9,80,74,71,29.83,29.74,16,-19,25,0.00
2012-8-31,79.0,68.4,60.0,70.0,58.7,-99.9,84,75,66,29.87,29.61,23,-15,40,0.01
2012-9-1,67.0,56.1,46.0,54.0,44.4,-99.9,87,71,45,30.20,29.92,12,-16,22,0.01
2012-9-2,71.0,54.2,41.0,58.0,43.2,-99.9,90,72,40,30.23,30.13,9,-19,13,0.00
2012-9-3,73.0,56.9,48.0,61.0,46.8,-99.9,87,74,60,30.27,30.13,6,-20,23,0.00
2012-9-4,77.0,64.2,55.0,68.0,52.9,-99.9,77,71,65,30.14,29.97,11,-21,29,0.00
2012-9-5,75.0,65.5,58.0,64.0,53.7,-99.9,80,70,61,29.97,29.84,22,-18,32,0.00
2012-9-6,68.0,60.3,55.0,61.0,50.4,-99.9,79,74,70,29.98,29.90,10,-18,21,0.00
2012-9-7,74.0,62.2,54.0,65.0,50.5,-99.9,77,70,63,29.95,29.89,6,-26,14,0.00
2012-9-8,74.0,64.9,55.0,63.0,50.3,-99.9,72,65,54,29.96,29.63,16,-28,46,0.00
2012-9-9,67.0,58.5,52.0,56.0,47.9,-99.9,80,72,57,29.90,29.59,12,-18,39,0.03
2012-9-10,59.0,53.1,49.0,52.0,43.3,-99.9,81,73,67,29.99,29.89,16,-15,24,0.01
2012-9-11,67.0,53.5,43.0,51.0,39.9,-99.9,83,67,43,30.22,29.98,12,-27,26,0.00
2012-9-12,77.0,57.9,42.0,62.0,45.9,-99.9,77,68,51,30.31,30.21,9,-19,17,0.00
2012-9-13,81.0,65.1,55.0,66.0,51.0,-99.9,80,65,49,30.29,30.18,14,-26,20,0.00
2012-9-14,81.0,64.4,53.0,69.0,50.5,-99.9,80,68,57,30.24,30.07,14,-39,33,0.00
2012-9-15,68.0,58.4,48.0,62.0,48.3,-99.9,87,75,72,30.06,29.85,10,-26,32,0.01
2012-9-16,61.0,49.3,41.0,46.0,35.9,-99.9,88,68,38,29.95,29.86,13,-26,38,0.01
2012-9-17,69.0,51.6,37.0,54.0,37.7,-99.9,85,67,41,30.09,29.97,12,-28,22,0.00
2012-9-18,70.0,56.3,47.0,61.0,43.5,-99.9,82,69,65,30.08,29.82,19,-35,53,0.01
2012-9-19,65.0,55.1,41.0,56.0,42.7,-99.9,83,69,55,30.25,29.64,29,-25,55,0.03
2012-9-20,62.0,45.9,34.0,47.0,30.7,-99.9,82,63,38,30.39,30.23,8,-31,18,0.01
2012-9-21,62.0,47.8,38.0,55.0,34.8,-99.9,80,68,58,30.27,30.15,9,-41,19,0.00
2012-9-22,71.0,59.2,53.0,60.0,41.5,-99.9,69,58,54,30.15,29.85,12,-28,27,0.00
2012-9-23,65.0,55.2,44.0,54.0,39.1,-99.9,83,62,45,30.04,29.78,22,-37,38,0.01
2012-9-24,59.0,45.2,35.0,46.0,30.9,-99.9,83,65,48,30.15,30.04,10,-38,19,0.01
2012-9-25,62.0,49.0,34.0,52.0,36.6,-99.9,83,68,52,30.09,30.00,14,-28,36,0.00
2012-9-26,60.0,51.8,46.0,52.0,39.3,-99.9,75,68,59,30.10,29.93,13,-27,37,0.00
2012-9-27,54.0,44.0,37.0,43.0,32.2,-99.9,84,71,57,30.29,30.01,21,-34,36,0.00
2012-9-28,55.0,39.4,32.0,44.0,30.6,24.0,79,71,59,30.32,30.20,5,2,11,0.00
2012-9-29,51.0,44.6,39.0,39.0,33.1,28.0,67,64,61,30.21,30.10,10,4,16,0.01
2012-9-30,60.0,56.2,51.0,47.0,42.3,37.0,63,59,57,30.07,29.62,19,6,35,0.01
2012-10-1,60.0,54.9,48.0,51.0,43.3,34.0,79,65,52,29.76,29.61,10,5,31,0.01
2012-10-2,66.0,53.9,48.0,56.0,41.2,34.0,79,62,52,30.05,29.77,19,6,25,0.01
2012-10-3,66.0,51.1,41.0,52.0,36.5,20.0,81,59,30,30.31,30.07,10,3,18,0.00
2012-10-4,60.0,47.8,36.0,54.0,32.4,14.0,82,56,34,30.31,30.08,9,3,20,0.00
2012-10-5,61.0,54.8,51.0,48.0,33.3,26.0,63,44,38,30.05,29.87,10,4,19,0.00
2012-10-25,32.0,32.0,32.0,-99.9,-99.9,-99.9,0,0,100,30.37,30.37,5,5,7,0.00
2012-10-27,45.0,42.1,39.0,33.0,27.6,19.0,62,56,44,30.20,30.15,2,1,7,0.00
2012-10-28,52.0,45.3,35.0,48.0,35.5,18.0,85,69,44,30.24,30.14,12,6,26,0.00
2012-10-29,60.0,54.8,50.0,55.0,48.3,39.0,86,78,65,30.14,30.02,22,12,38,0.00
2012-10-30,58.0,55.9,54.0,52.0,50.3,49.0,84,82,77,30.03,29.94,18,12,43,0.01
2012-10-31,55.0,55.0,55.0,44.0,40.9,37.0,67,59,50,29.86,29.81,10,8,29,0.03
2012-11-5,29.0,27.2,25.0,25.0,20.8,16.0,94,78,59,30.01,29.99,7,4,16,0.00
2012-11-6,32.0,25.8,20.0,24.0,18.6,12.0,100,77,43,30.23,29.99,18,6,36,0.00
2012-11-7,37.0,25.5,14.0,30.0,21.8,14.0,100,87,52,30.34,30.16,14,5,31,0.00
2012-11-8,35.0,32.9,30.0,32.0,28.6,16.0,100,84,55,30.16,29.85,16,10,28,0.00
2012-11-9,38.0,35.5,33.0,36.0,32.7,24.0,99,90,68,29.86,29.78,21,8,31,0.00
2012-11-10,37.0,30.6,24.0,35.0,19.3,11.0,95,64,46,30.42,29.86,26,10,52,0.00
2012-11-11,33.0,27.7,19.0,31.0,26.0,19.0,100,93,80,30.51,30.42,9,3,18,0.00
2012-11-12,53.0,42.0,30.0,51.0,34.7,12.0,100,78,29,30.42,30.14,12,5,27,0.00
2012-11-13,61.0,45.8,31.0,58.0,42.1,29.0,94,87,74,30.39,29.99,19,7,53,0.02
2012-11-14,37.0,29.0,23.0,33.0,24.9,-99.9,100,88,66,30.59,30.39,10,4,22,0.01
2012-11-15,32.0,26.2,18.0,32.0,24.7,14.0,100,94,59,30.58,30.33,7,3,15,0.00
2012-11-16,39.0,31.7,27.0,34.0,29.9,27.0,100,94,66,30.38,30.27,8,5,23,0.00
2012-11-17,32.0,25.2,17.0,28.0,18.1,15.0,100,76,48,30.66,30.38,11,6,27,0.00
2012-11-18,41.0,24.5,14.0,29.0,20.6,9.0,100,88,48,30.76,30.63,6,3,10,0.00
2012-11-19,41.0,26.0,17.0,30.0,22.2,11.0,100,88,46,30.63,30.26,5,2,9,0.00
2012-11-20,45.0,26.3,16.0,30.0,22.7,16.0,100,89,53,30.26,30.17,7,3,17,0.00
2012-11-21,37.0,29.5,19.0,35.0,22.9,10.0,98,77,46,30.34,30.23,6,3,13,0.00
2012-11-22,47.0,36.9,30.0,40.0,28.3,7.0,98,73,37,30.21,30.01,11,5,17,0.00
2012-11-23,48.0,37.1,32.0,45.0,31.1,12.0,98,80,40,30.01,29.64,11,6,23,0.00
2012-11-24,41.0,36.3,32.0,37.0,29.8,12.0,100,79,30,29.64,29.27,10,5,23,0.01
2012-11-25,32.0,26.6,22.0,32.0,20.3,15.0,100,78,55,29.49,29.24,29,12,48,0.01
2012-11-26,24.0,23.4,20.0,20.0,18.9,14.0,86,82,77,30.11,29.49,11,7,34,0.00
2012-11-27,27.0,17.9,9.0,18.0,13.4,9.0,100,85,53,30.30,30.11,7,3,19,0.00
2012-11-28,29.0,14.3,3.0,21.0,12.2,3.0,100,93,60,30.28,30.03,5,2,8,0.00
2012-11-29,20.0,15.6,7.0,20.0,14.4,6.0,100,95,82,30.09,29.94,14,7,36,0.00
2012-11-30,16.0,9.7,5.0,9.0,5.8,1.0,100,85,67,30.53,30.09,18,9,56,0.00
2012-12-1,25.0,11.0,2.0,17.0,8.3,2.0,100,91,54,30.67,30.52,8,3,12,0.00
2012-12-2,44.0,27.6,17.0,28.0,21.9,11.0,100,84,29,30.52,29.84,16,8,35,0.00
2012-12-3,43.0,36.1,25.0,38.0,32.3,13.0,100,88,46,30.25,29.83,15,7,37,0.00
2012-12-4,41.0,31.5,22.0,37.0,24.3,13.0,100,77,31,30.29,29.87,15,6,24,0.02
2012-12-5,46.0,36.0,28.0,42.0,28.5,20.0,100,76,37,29.92,29.70,18,10,35,0.02
2012-12-6,28.0,19.8,12.0,23.0,13.0,-99.9,100,82,68,30.27,29.91,28,11,56,0.01
2012-12-7,29.0,21.4,10.0,27.0,19.5,10.0,100,93,67,30.25,30.01,9,4,20,0.00
2012-12-8,33.0,27.1,21.0,33.0,26.0,19.0,100,96,81,30.06,29.88,5,1,8,0.00
2012-12-9,35.0,29.8,14.0,34.0,23.8,9.0,100,80,39,30.33,29.79,16,9,39,0.00
2012-12-10,29.0,22.1,12.0,22.0,17.4,12.0,100,84,53,30.30,29.49,14,4,43,0.00
2012-12-11,30.0,19.9,11.0,23.0,14.9,11.0,100,84,44,30.06,29.47,8,3,24,0.00
2012-12-12,22.0,14.3,4.0,21.0,14.2,4.0,100,99,92,30.28,30.06,10,5,19,0.00
2012-12-13,25.0,13.8,-1.0,25.0,13.6,-1.0,100,99,92,30.38,30.16,8,3,13,0.00
2012-12-14,33.0,27.1,18.0,33.0,26.7,18.0,100,98,87,30.16,29.87,12,7,32,0.00
2012-12-15,18.0,9.0,1.0,18.0,7.3,1.0,100,93,74,30.31,30.05,13,7,45,0.00
2012-12-16,16.0,2.4,-11.0,11.0,1.6,-11.0,100,97,77,30.34,30.23,13,3,19,0.00
2012-12-17,30.0,16.6,-1.0,28.0,15.4,-1.0,100,96,68,30.27,30.11,5,2,13,0.00
2012-12-18,35.0,32.5,30.0,35.0,29.4,22.0,100,89,65,30.09,29.75,20,10,34,0.00
2012-12-19,33.0,30.5,27.0,33.0,28.6,20.0,100,93,67,30.03,29.69,21,9,36,0.01
2012-12-20,36.0,27.7,25.0,33.0,26.4,12.0,100,96,40,30.20,30.06,5,2,14,0.01
2012-12-21,30.0,27.3,25.0,30.0,27.3,25.0,100,100,100,30.09,29.68,14,8,42,0.01
2012-12-28,22.0,19.7,18.0,22.0,19.7,18.0,100,100,100,29.81,29.71,13,9,31,0.00
2012-12-29,21.0,16.5,12.0,18.0,15.8,12.0,100,97,83,29.95,29.69,8,4,23,0.00
2012-12-30,21.0,16.0,9.0,21.0,15.9,8.0,100,100,97,29.69,29.37,27,13,43,0.00
2012-12-31,16.0,8.5,0.0,11.0,6.6,0.0,100,92,77,29.67,29.53,26,9,45,0.00
2013-1-1,14.0,7.0,-1.0,11.0,4.8,-1.0,100,91,71,29.59,29.42,17,7,30,0.00